COSMOS 785

Satellite information

Favourite Embed

Satellite Type and Status

PAYLOADIN ORBIT

Key statistics

Satellite COSMOS 785 at a glance.

Uptime

18269

Days in orbit

Revolutions

≈ 13.8

Per day

Orbit

LEO

Low Earth Orbit

Inclination

65.1

Latest

Satellite identification and parameters

Extended collection of information and parameters for COSMOS 785.

Object identification

Identified? True

Debris? False

Object name: COSMOS 785

International designator: 1975-116A

Object number (NORAD): 8473

Object ID (CCSDS): 8473

Country: COMMONWEALTH OF INDEPENDENT STATES (CIS)

Current information (Y/N): Y

RCS size: LARGE

Orbital parameters

Period: 104.173 minutes

Inclination: 65.0776 deg

SMA: 7333.816 km

Apoapsis: 1015.109 km

Periapsis: 896.253 km

RAAN: 102.8789 deg

Eccentricy: 0.0081033

Argument of periapsis: 349.8593 deg

Mean anomaly: 10.0828 deg

Mean motion: 13.82317358 rev/day

Mean motion (dot): -0.0000008 rev/day2

B* drag term: 0.000006955462 1/REarth

Two-line elements (TLE)

Creation date: Dec. 18, 2025, 2:19 a.m.

Reference frame: TEME

Reference center: EARTH

Epoch: Dec. 17, 2025, 4:06 p.m. UTC

TLE line 0: 0 COSMOS 785

TLE line 1: 1 08473U 75116A 25351.67098225 -.00000080 00000-0 69555-5 0 9991

TLE line 2: 2 08473 65.0776 102.8789 0081033 349.8593 10.0828 13.82317358523950

Live tracking on map

Real-time ground track for satellite COSMOS 785.

In-orbit conjunctions

A list of the most updated potential collisions computed for object COSMOS 785.

Target Orbit TCA Probability of collision Miss distance Type
THORAD AGENA D DEB SSO 2025-11-15 23:52:18 0.0003468908 275.0 (m) DEBRIS
COSMOS 1275 DEB LEO 2025-08-29 19:08:27 0.0001392909 837.0 (m) DEBRIS
THORAD AGENA D DEB LEO 2024-09-14 17:28:06 0.0002085507 422.0 (m) DEBRIS

Associated space launch

Active radar satellite for ocean surveillance powered by a nuclear reactor.

COSMOS 785 was lifted into orbit during the mission ‘Tsiklon-2 | US-A 11’, on board a Tsiklon-2 space rocket.

The launch took place on Dec. 12, 1975, 12:45 p.m. from 90.

For more information about the launch, click the button.

Launch to space Tsiklon-2 | US-A 11
Tsiklon-2 | US-A 11

Agency: N/A

Status: Launch Successful

Launch date: Dec. 12, 1975, 12:45 p.m. UTC

Rocket: Tsiklon-2

Launch pad: 90

Location: Baikonur Cosmodrome, Republic of Kazakhstan

...

Latest news about this satellite

There are no fresh news available about this satellite. Check back as we update our databases every day.


Newsletter sign-up

Weekly statistics, charts and insights to help you stay on top of the space industry.